CAPE
1100 1079 1172 1011 913 721 682 666 610 531 359 261 225 48 0 0 0 0 0 0 0 0 0 0 0 0 0 0 0 0 0 0
1249 1151 1007 805 698 659 633 528 357 339 303 160 16 0 0 0 0 0 0 0 0 0 0 0 0 0 0 0 0 0 0 0
1419 1117 960 971 1169 842 566 476 437 334 125 7 0 0 0 0 0 0 0 0 0 0 0 0 0 0 0 0 0 0 0 0
1354 991 1159 965 862 1019 852 429 195 72 5 0 0 0 0 0 0 0 0 0 0 0 0 0 0 0 0 0 0 0 0 0
1463 1096 964 909 876 695 729 189 136 28 0 0 0 0 0 0 0 0 0 0 0 0 0 0 0 0 0 0 0 0 0 0
1446 1136 857 766 470 595 480 130 95 14 0 0 0 0 0 0 0 0 0 0 0 0 0 0 0 0 0 0 0 0 0 0
1512 1163 1150 947 376 172 184 83 37 6 0 0 0 0 0 0 0 0 0 0 0 0 0 0 0 0 0 0 0 0 0 0
1653 1496 1251 1026 585 200 254 118 19 0 0 0 0 0 0 0 0 0 0 0 0 0 0 0 0 0 0 0 0 0 0 0
1700 1370 1548 1076 663 260 251 34 0 0 0 0 0 0 0 0 0 0 0 0 0 0 0 0 0 0 0 0 0 0 0 0
756 1149 1458 1320 678 346 230 40 0 0 0 0 0 0 0 0 0 0 0 0 0 0 0 0 0 0 0 0 0 0 0 0
763 1042 1630 1346 816 527 310 111 9 0 0 0 0 0 0 0 0 0 0 0 0 0 0 0 0 0 0 0 0 0 0 0
1332 944 808 1242 847 711 372 198 46 0 0 0 0 0 0 0 0 0 0 0 0 0 0 0 0 0 0 0 0 0 0 0
1332 929 581 505 494 583 441 321 105 5 0 0 0 0 0 0 0 0 0 0 0 0 0 0 0 0 0 0 0 0 0 0
1190 1103 770 315 173 379 463 353 178 48 3 0 0 0 0 0 0 0 0 0 0 0 0 0 0 0 0 0 0 0 0 0
1002 1042 912 453 255 208 346 377 249 127 43 20 0 0 0 0 0 0 0 0 0 0 0 0 0 0 0 0 0 0 0 0
762 764 758 608 403 286 199 269 237 168 93 62 17 3 0 0 0 0 0 0 0 0 0 0 0 0 0 0 0 0 0 0
844 726 748 784 489 135 162 148 156 160 106 87 66 62 27 0 0 0 0 0 0 0 0 0 0 0 0 0 0 0 0 0
735 608 562 694 447 115 79 165 166 127 127 117 103 97 69 5 0 0 0 0 0 0 0 0 0 0 0 0 0 0 0 0
535 436 175 248 437 252 1 57 136 66 90 85 94 88 62 6 0 0 0 0 0 0 0 0 0 0 0 0 0 0 0 0
381 175 80 134 180 104 16 6 51 131 58 67 53 78 43 0 0 0 0 0 0 0 0 0 0 0 0 0 0 0 0 0
CIN
-251 -204 -178 -190 -177 -173 -169 -147 -121 -111 -131 -131 -122 -216 0 0 0 0 0 0 0 0 0 0 0 0 0 0 0 0 0 0
-185 -173 -205 -217 -209 -165 -144 -144 -170 -143 -143 -174 -171 0 0 0 0 0 0 0 0 0 0 0 0 0 0 0 0 0 0 0
-133 -163 -184 -162 -115 -133 -142 -141 -125 -133 -199 -176 0 0 0 0 0 0 0 0 0 0 0 0 0 0 0 0 0 0 0 0
-152 -186 -137 -156 -162 -111 -103 -157 -200 -254 -303 0 0 0 0 0 0 0 0 0 0 0 0 0 0 0 0 0 0 0 0 0
-139 -170 -175 -151 -153 -173 -140 -241 -238 -303 -113 0 0 0 0 0 0 0 0 0 0 0 0 0 0 0 0 0 0 0 0 0
-157 -174 -209 -184 -231 -183 -181 -294 -285 -359 0 0 0 0 0 0 0 0 0 0 0 0 0 0 0 0 0 0 0 0 0 0
-137 -168 -141 -144 -185 -329 -299 -330 -362 -253 0 0 0 0 0 0 0 0 0 0 0 0 0 0 0 0 0 0 0 0 0 0
-121 -119 -127 -128 -163 -311 -269 -322 -430 0 0 0 0 0 0 0 0 0 0 0 0 0 0 0 0 0 0 0 0 0 0 0
-112 -123 -65 -103 -166 -273 -261 -423 0 0 0 0 0 0 0 0 0 0 0 0 0 0 0 0 0 0 0 0 0 0 0 0
-215 -125 -80 -72 -175 -198 -222 -363 0 0 0 0 0 0 0 0 0 0 0 0 0 0 0 0 0 0 0 0 0 0 0 0
-198 -123 -61 -76 -116 -176 -196 -293 -383 0 0 0 0 0 0 0 0 0 0 0 0 0 0 0 0 0 0 0 0 0 0 0
-90 -111 -126 -84 -88 -136 -157 -243 -307 0 0 0 0 0 0 0 0 0 0 0 0 0 0 0 0 0 0 0 0 0 0 0
-83 -119 -174 -185 -157 -146 -152 -227 -240 -285 0 0 0 0 0 0 0 0 0 0 0 0 0 0 0 0 0 0 0 0 0 0
-48 -91 -128 -236 -264 -172 -129 -162 -170 -191 -98 0 0 0 0 0 0 0 0 0 0 0 0 0 0 0 0 0 0 0 0 0
-36 -80 -95 -178 -204 -179 -122 -123 -122 -163 -190 -203 0 0 0 0 0 0 0 0 0 0 0 0 0 0 0 0 0 0 0 0
-41 -42 -52 -78 -106 -115 -138 -142 -132 -143 -141 -135 -104 -63 0 0 0 0 0 0 0 0 0 0 0 0 0 0 0 0 0 0
-53 -43 -19 -26 -53 -134 -126 -117 -120 -107 -113 -96 -76 -64 -54 0 0 0 0 0 0 0 0 0 0 0 0 0 0 0 0 0
-23 -42 -15 -8 -38 -105 -121 -87 -98 -106 -110 -90 -69 -60 -36 -69 0 0 0 0 0 0 0 0 0 0 0 0 0 0 0 0
-9 -5 -32 -29 -21 -33 -54 -96 -79 -85 -71 -81 -88 -62 -20 -19 0 0 0 0 0 0 0 0 0 0 0 0 0 0 0 0
-31 -37 -57 -35 -40 -71 -93 0 -82 -39 -55 -58 -57 -22 -18 -7 0 0 0 0 0 0 0 0 0 0 0 0 0 0 0 0
Wind_Speed
38 35 35 35 33 33 30 30 30 29 28 28 28 nan nan nan nan nan nan nan nan nan nan nan nan nan nan nan nan nan nan nan
37 34 35 34 32 36 34 33 33 32 32 30 nan nan nan nan nan nan nan nan nan nan nan nan nan nan nan nan nan nan nan nan
39 36 34 36 34 33 36 37 35 35 33 nan nan nan nan nan nan nan nan nan nan nan nan nan nan nan nan nan nan nan nan nan
40 38 35 37 32 32 32 31 29 nan nan nan nan nan nan nan nan nan nan nan nan nan nan nan nan nan nan nan nan nan nan nan
40 39 36 34 32 29 27 26 26 nan nan nan nan nan nan nan nan nan nan nan nan nan nan nan nan nan nan nan nan nan nan nan
40 42 37 32 30 28 30 28 nan nan nan nan nan nan nan nan nan nan nan nan nan nan nan nan nan nan nan nan nan nan nan nan
42 44 37 31 31 31 31 nan nan nan nan nan nan nan nan nan nan nan nan nan nan nan nan nan nan nan nan nan nan nan nan nan
45 41 38 34 34 36 35 36 nan nan nan nan nan nan nan nan nan nan nan nan nan nan nan nan nan nan nan nan nan nan nan nan
46 46 40 40 38 40 38 nan nan nan nan nan nan nan nan nan nan nan nan nan nan nan nan nan nan nan nan nan nan nan nan nan
49 47 46 44 42 43 40 nan nan nan nan nan nan nan nan nan nan nan nan nan nan nan nan nan nan nan nan nan nan nan nan nan
45 48 50 47 47 45 44 43 nan nan nan nan nan nan nan nan nan nan nan nan nan nan nan nan nan nan nan nan nan nan nan nan
44 47 51 50 50 46 45 44 nan nan nan nan nan nan nan nan nan nan nan nan nan nan nan nan nan nan nan nan nan nan nan nan
44 47 48 49 49 45 44 43 47 nan nan nan nan nan nan nan nan nan nan nan nan nan nan nan nan nan nan nan nan nan nan nan
44 43 49 47 50 44 51 48 50 nan nan nan nan nan nan nan nan nan nan nan nan nan nan nan nan nan nan nan nan nan nan nan
50 45 47 48 52 52 54 54 56 54 nan nan nan nan nan nan nan nan nan nan nan nan nan nan nan nan nan nan nan nan nan nan
52 47 49 50 53 55 54 53 56 55 nan nan nan nan nan nan nan nan nan nan nan nan nan nan nan nan nan nan nan nan nan nan
49 47 51 50 51 55 55 54 59 59 58 nan nan nan nan nan nan nan nan nan nan nan nan nan nan nan nan nan nan nan nan nan
45 45 43 45 46 50 nan 54 57 58 58 60 57 nan nan nan nan nan nan nan nan nan nan nan nan nan nan nan nan nan nan nan
40 42 40 43 44 46 nan nan 53 nan nan nan nan nan nan nan nan nan nan nan nan nan nan nan nan nan nan nan nan nan nan nan
43 41 nan 41 41 40 nan nan nan 50 nan nan nan nan nan nan nan nan nan nan nan nan nan nan nan nan nan nan nan nan nan nan
Wind_Direction
292 303 302 285 284 284 284 287 292 297 297 294 299 nan nan nan nan nan nan nan nan nan nan nan nan nan nan nan nan nan nan nan
289 290 292 283 281 284 285 289 293 295 294 296 nan nan nan nan nan nan nan nan nan nan nan nan nan nan nan nan nan nan nan nan
286 286 287 284 278 281 284 288 290 291 294 nan nan nan nan nan nan nan nan nan nan nan nan nan nan nan nan nan nan nan nan nan
283 286 286 283 277 281 283 289 288 nan nan nan nan nan nan nan nan nan nan nan nan nan nan nan nan nan nan nan nan nan nan nan
283 284 283 283 276 277 279 285 287 nan nan nan nan nan nan nan nan nan nan nan nan nan nan nan nan nan nan nan nan nan nan nan
281 285 285 287 280 280 284 288 nan nan nan nan nan nan nan nan nan nan nan nan nan nan nan nan nan nan nan nan nan nan nan nan
282 286 284 284 285 286 286 nan nan nan nan nan nan nan nan nan nan nan nan nan nan nan nan nan nan nan nan nan nan nan nan nan
281 282 285 277 279 285 280 279 nan nan nan nan nan nan nan nan nan nan nan nan nan nan nan nan nan nan nan nan nan nan nan nan
277 279 278 279 276 277 278 nan nan nan nan nan nan nan nan nan nan nan nan nan nan nan nan nan nan nan nan nan nan nan nan nan
276 275 279 276 276 276 277 nan nan nan nan nan nan nan nan nan nan nan nan nan nan nan nan nan nan nan nan nan nan nan nan nan
274 277 275 276 276 275 276 273 nan nan nan nan nan nan nan nan nan nan nan nan nan nan nan nan nan nan nan nan nan nan nan nan
275 272 276 275 270 271 271 273 nan nan nan nan nan nan nan nan nan nan nan nan nan nan nan nan nan nan nan nan nan nan nan nan
281 277 275 271 268 271 272 278 277 nan nan nan nan nan nan nan nan nan nan nan nan nan nan nan nan nan nan nan nan nan nan nan
283 279 276 270 267 266 271 274 272 nan nan nan nan nan nan nan nan nan nan nan nan nan nan nan nan nan nan nan nan nan nan nan
280 278 275 272 270 264 265 266 268 271 nan nan nan nan nan nan nan nan nan nan nan nan nan nan nan nan nan nan nan nan nan nan
275 278 277 273 270 267 270 269 270 269 nan nan nan nan nan nan nan nan nan nan nan nan nan nan nan nan nan nan nan nan nan nan
280 276 275 273 273 267 266 267 267 267 268 nan nan nan nan nan nan nan nan nan nan nan nan nan nan nan nan nan nan nan nan nan
282 284 279 278 280 272 nan 274 273 271 272 269 270 nan nan nan nan nan nan nan nan nan nan nan nan nan nan nan nan nan nan nan
270 273 274 275 276 271 nan nan 276 nan nan nan nan nan nan nan nan nan nan nan nan nan nan nan nan nan nan nan nan nan nan nan
266 271 nan 268 270 274 nan nan nan 266 nan nan nan nan nan nan nan nan nan nan nan nan nan nan nan nan nan nan nan nan nan nan